DECAYED

STARLINK-30187, 57473 (Decayed)

Orbit data source: Space-Track

STARLINK-30187, 57473 was a payload satellite owned by SpaceX/Seattle (US) in LEO that was launched on Fri, 28 Jul 2023 UTC via an FALCON 9 launch vehicle from the Air Force Eastern Test Range (AFETR). Payload-class satellites include a variety of spacecraft equipped with specific instruments for various scientific and technological missions. These include communications satellites like Starlink; space stations such as the ISS; scientific satellites like the Hubble; Earth observation satellites from companies like Planet Labs, Umbra, and HawkEye 360; GPS; miniature CubeSats for education and research; and military/defense satellites.

Not visible in the next 10 days
Identifier
57473, 2023-107S
Orbit
Decayed
Country
Flag of USUS
Related business
Manufacturer
SpaceX/Seattle
Mission
Decayed Commercial Communications
Bus & Motor
STARLINK V2M, Unknown motor
Mass
730 kg wet, ~700 kg dry
Launch date (UTC)
2023-07-28 (3 years ago)
Launch vehicle
FALCON 9
Launch site
Air Force Eastern Test Range (AFETR)
Object type
Payload
Rocket body
Debris
Shape & HBR
Box + 2 Pan, 17.7 m
Radar Cross Section
33.884 m², Large (>1 m²)

Expand to show TLE details & history
Last TLE update: 2 months ago

TLE from 2 months ago
0 STARLINK-30187
1 57473U 23107S   26098.40953384  .05023052  88410-1  50016-2 0  9993
2 57473  42.9815 119.4262 0011373 119.1689 241.0334 16.16269367150259
Epoch: 2026-04-08T09:49Z
TLE epoch observation values (Epoch: 2026-04-08T09:49:43.723Z)
Latitude
-0.00005°
Longitude
135.32166°
Altitude
233.111 km
Speed
7.767 km/s
True Right ascension
07h 57m 42s
True Declination
0° 00' 00"
Sunlit
Object was in daylight at epoch
Visualization orbit readout
Latitude
Unknown
Longitude
Unknown
Altitude
Unknown
Speed
Unknown
Apparent Right ascension
Unknown
Apparent Declination
Unknown
Sunlit
N/A
Visualization observer readout
Local Sidereal Time
21:32:51
Azimuth
Unknown
Elevation
Unknown
Doppler factor
Unknown
Orbital elements
Apogee altitude
239.24 km
Perigee altitude
224.206 km
Semi-major axis
6,609.86 km
Eccentricity
0.00114
Inclination
42.9815°
RAAN
119.4262°
Arg. of periapsis
119.1689°
True anomaly
240.91946°
Mean anomaly
241.0334°
Eccentric anomaly
240.97642°
Mean motion
4.03882 °/min
Orbital period
89.13 mins
BSTAR
0.0050016
Loading maneuver chart data...
Computing Atmospheric mass density...

Documentation

Showing up to 5 results
|